DW6366 Weather Reports


Display with metric or nautical units.
time (UTC)temp
F
wind
direction
speed
MPH
gust
MPH
rain 1hr
in
rain 24hr
in
rain mn
in
humidity
%
barometer
mb
20260831032333 63 217 5.0 10.0 0.00 0.24 0.00 88 1008.2
20260831031321 63 218 5.0 9.0 0.00 0.24 0.00 89 1008.2
20260831030335 63 220 3.0 9.0 0.00 0.24 0.00 89 1008.3
20260831025325 63 243 3.0 8.0 0.00 0.28 0.00 89 1008.5
20260831024348 63 184 4.0 6.0 0.00 0.28 0.00 89 1008.5
20260831023333 63 221 3.0 7.0 0.00 0.28 0.00 89 1008.5
20260831022401 63 213 3.0 6.0 0.00 0.28 0.00 89 1008.4
20260831021350 63 240 3.0 9.0 0.00 0.28 0.00 89 1008.4
20260831020331 63 213 3.0 6.0 0.00 0.28 0.00 89 1008.3
20260831015323 63 251 3.0 6.0 0.00 0.28 0.00 88 1008.4
20260831014331 63 246 2.0 6.0 0.00 0.28 0.00 88 1008.3
20260831013323 63 161 2.0 4.0 0.00 0.28 0.00 88 1008.3
20260831012356 63 194 2.0 4.0 0.00 0.28 0.00 87 1008.5
20260831011338 63 247 1.0 4.0 0.00 0.28 0.00 87 1008.6
20260831010331 63 174 2.0 6.0 0.00 0.28 0.00 87 1008.5
20260831005330 63 196 2.0 7.0 0.00 0.28 0.00 87 1008.6
20260831004324 63 238 3.0 10.0 0.00 0.28 0.00 87 1008.7
20260831003329 63 192 2.0 8.0 0.00 0.28 0.00 87 1008.7
20260831002335 64 213 3.0 8.0 0.00 0.28 0.00 87 1008.8
20260831001323 64 203 3.0 4.0 0.00 0.28 0.00 86 1009.0
20260831000340 64 175 1.0 4.0 0.00 0.28 0.00 86 1009.0
20260830235323 64 208 0.0 0.0 0.00 0.28 0.00 86 1009.0
20260830234357 64 250 1.0 4.0 0.00 0.28 0.00 85 1009.2
20260830233325 64 227 1.0 3.0 0.00 0.28 0.00 85 1009.2
20260830232330 65 236 1.0 4.0 0.00 0.28 0.00 84 1009.3
20260830231356 65 213 2.0 7.0 0.00 0.28 0.00 84 1009.2
20260830230333 65 253 3.0 7.0 0.00 0.28 0.00 83 1009.2
20260830225329 65 296 2.0 6.0 0.00 0.28 0.00 83 1009.3
20260830224322 65 213 2.0 10.0 0.00 0.28 0.00 83 1009.2
20260830223324 65 176 6.0 11.0 0.00 0.28 0.00 84 1009.4
20260830222320 65 185 6.0 12.0 0.00 0.28 0.00 84 1009.4
20260830221329 65 168 1.0 3.0 0.00 0.28 0.00 84 1009.4
20260830220325 65 155 1.0 4.0 0.00 0.28 0.00 83 1009.4
20260830215337 65 221 1.0 4.0 0.00 0.28 0.06 83 1009.5
20260830214325 66 232 1.0 4.0 0.00 0.28 0.06 82 1009.6
20260830213342 66 217 0.0 3.0 0.00 0.28 0.06 82 1009.7
20260830212321 67 263 0.0 0.0 0.00 0.28 0.06 81 1009.8
20260830211333 67 263 0.0 1.0 0.00 0.28 0.06 81 1009.9
20260830210323 67 246 0.0 4.0 0.00 0.28 0.06 80 1010.0
20260830205331 68 222 3.0 6.0 0.00 0.28 0.06 79 1010.0
20260830204339 68 203 3.0 8.0 0.00 0.28 0.06 79 1010.0
20260830203328 68 187 3.0 7.0 0.00 0.28 0.06 79 1010.0
20260830202339 68 228 4.0 10.0 0.00 0.28 0.06 79 1010.0
20260830201349 67 165 3.0 6.0 0.00 0.28 0.06 80 1010.1
20260830200324 68 213 0.0 1.0 0.00 0.28 0.06 80 1010.1
20260830195350 68 151 0.0 1.0 0.00 1.77 0.06 80 1010.1
20260830194329 68 131 0.0 0.0 0.00 1.77 0.06 79 1010.2
20260830193339 68 127 0.0 2.0 0.00 1.77 0.06 79 1010.2
20260830192331 68 144 0.0 0.0 0.00 1.77 0.06 78 1010.3
20260830191329 68 157 0.0 0.0 0.00 1.77 0.06 78 1010.3
20260830190324 68 163 0.0 2.0 0.00 1.77 0.06 78 1010.2
20260830185339 69 161 0.0 2.0 0.00 1.81 0.06 77 1010.2
20260830184330 69 149 0.0 2.0 0.00 1.81 0.06 77 1010.3
20260830183344 69 196 0.0 3.0 0.00 1.81 0.06 76 1010.5
20260830182329 69 157 0.0 4.0 0.00 1.81 0.06 76 1010.4
20260830181321 69 219 1.0 4.0 0.00 1.81 0.06 76 1010.4
20260830180333 70 232 0.0 4.0 0.00 1.81 0.06 77 1010.6
20260830175328 70 182 0.0 1.0 0.00 1.81 0.06 77 1010.5
20260830174335 71 163 0.0 0.0 0.00 1.81 0.06 77 1010.5
20260830173334 71 165 0.0 1.0 0.00 1.81 0.06 77 1010.8
20260830172324 71 203 0.0 4.0 0.00 1.81 0.06 77 1010.8
20260830171345 71 180 0.0 3.0 0.00 1.81 0.06 77 1010.8
20260830170322 71 229 0.0 3.0 0.00 1.81 0.06 76 1010.9
20260830165351 71 182 0.0 1.0 0.00 1.85 0.06 77 1011.0
20260830164405 71 230 0.0 0.0 0.00 1.85 0.06 76 1010.9
20260830163320 71 203 0.0 3.0 0.00 1.85 0.06 76 1011.1
20260830162329 71 208 2.0 5.0 0.00 1.85 0.06 75 1011.1
20260830161342 72 230 2.0 6.0 0.00 1.85 0.06 75 1011.2
20260830160317 72 213 2.0 8.0 0.00 1.85 0.06 74 1011.2
20260830155341 72 217 3.0 9.0 0.00 1.85 0.06 73 1011.2
20260830154326 73 213 5.0 8.0 0.00 1.85 0.06 71 1011.3
20260830153337 73 203 3.0 9.0 0.00 1.85 0.06 70 1011.2
20260830152338 75 213 2.0 9.0 0.00 1.85 0.06 69 1011.4
20260830151337 75 217 4.0 9.0 0.00 1.85 0.06 68 1011.5
20260830150328 75 175 7.0 12.0 0.00 1.85 0.06 67 1011.6
20260830145342 74 245 4.0 11.0 0.00 1.89 0.06 69 1011.7
20260830144358 73 298 5.0 10.0 0.00 1.89 0.06 72 1011.6
20260830143327 72 274 7.0 13.0 0.00 1.89 0.06 71 1011.7
20260830142345 72 208 5.0 11.0 0.00 1.89 0.06 71 1011.7
20260830141343 72 261 5.0 13.0 0.00 1.89 0.06 70 1011.7
20260830140356 72 217 4.0 15.0 0.00 1.89 0.06 70 1011.7
20260830135339 73 208 6.0 12.0 0.00 1.97 0.06 71 1011.7
20260830134355 72 289 8.0 13.0 0.00 1.97 0.06 71 1011.7
20260830133347 72 208 7.0 15.0 0.00 1.97 0.06 71 1011.7
20260830132347 73 213 6.0 16.0 0.00 1.97 0.06 71 1011.6
20260830131403 73 299 6.0 14.0 0.00 1.97 0.06 70 1011.7
20260830130347 74 225 6.0 13.0 0.00 1.97 0.06 69 1011.5
20260830125336 74 208 7.0 14.0 0.00 1.97 0.06 70 1011.5
20260830124321 73 208 6.0 14.0 0.00 1.97 0.06 74 1011.5
20260830123338 73 252 6.0 12.0 0.00 1.97 0.06 75 1011.5
20260830122323 72 283 8.0 16.0 0.00 1.97 0.06 76 1011.4
20260830121352 71 278 7.0 14.0 0.00 1.97 0.06 79 1011.6
20260830120334 71 208 4.0 13.0 0.00 1.97 0.06 78 1011.5
20260830115323 71 208 7.0 17.0 0.00 1.97 0.06 78 1011.3
20260830114321 71 208 8.0 18.0 0.00 1.97 0.06 77 1011.3
20260830113331 71 300 5.0 15.0 0.00 1.97 0.06 79 1011.2
20260830112320 70 289 7.0 13.0 0.00 1.97 0.06 77 1011.1
20260830111320 71 234 6.0 16.0 0.00 1.97 0.06 76 1011.0
20260830110324 71 267 9.0 16.0 0.00 1.97 0.06 79 1010.9
20260830105333 71 269 5.0 12.0 0.00 1.97 0.06 79 1010.8
20260830104339 70 240 8.0 15.0 0.00 1.97 0.06 80 1010.7
20260830103336 71 195 8.0 16.0 0.00 1.97 0.06 79 1010.8
20260830102341 71 315 7.0 15.0 0.00 1.97 0.06 80 1010.8
20260830101329 70 217 9.0 17.0 0.00 1.97 0.06 82 1010.6
20260830100351 70 234 7.0 15.0 0.00 1.97 0.06 83 1010.5
20260830095324 70 167 7.0 16.0 0.00 1.97 0.06 87 1010.2
20260830094338 68 219 8.0 18.0 0.00 1.97 0.06 90 1010.3
20260830093350 66 191 7.0 16.0 0.04 1.97 0.06 93 1010.3
20260830092332 65 226 7.0 13.0 0.04 1.97 0.06 93 1010.2
20260830091320 65 255 5.0 14.0 0.08 1.97 0.06 94 1010.1
20260830090329 65 241 5.0 12.0 0.08 1.97 0.06 94 1010.0
20260830085337 65 246 6.0 12.0 0.12 1.97 0.06 94 1009.9
20260830084330 65 292 5.0 11.0 0.12 1.97 0.06 94 1009.8
20260830083323 65 194 5.0 12.0 0.08 1.93 0.05 94 1009.8
20260830082357 65 208 7.0 13.0 0.08 1.93 0.05 94 1009.7
20260830081337 65 217 5.0 12.0 0.04 1.89 0.04 94 1009.6
20260830080329 65 269 6.0 12.0 0.04 1.89 0.04 94 1009.5
20260830075352 65 203 5.0 12.0 0.04 1.85 0.03 94 1009.4
20260830074322 65 259 5.0 12.0 0.04 1.85 0.03 94 1009.2
20260830073338 65 180 5.0 14.0 0.04 1.85 0.03 94 1009.0
20260830072330 64 203 6.0 14.0 0.04 1.85 0.03 94 1008.9
20260830071337 64 186 8.0 13.0 0.04 1.85 0.03 94 1008.7
20260830070341 64 275 5.0 11.0 0.04 1.85 0.03 94 1008.6
20260830065344 64 262 4.0 12.0 0.00 1.81 0.02 94 1008.5
20260830064321 64 213 3.0 13.0 0.00 1.81 0.02 94 1008.4
20260830063333 64 208 7.0 12.0 0.00 1.81 0.02 94 1008.3
20260830062337 64 305 4.0 12.0 0.00 1.81 0.02 94 1008.2
20260830061322 64 208 6.0 12.0 0.00 1.81 0.02 94 1008.0
20260830060332 64 219 6.0 12.0 0.00 1.81 0.02 94 1008.0
20260830055324 63 173 6.0 14.0 0.00 1.81 0.02 94 1007.9
20260830054330 63 231 7.0 12.0 0.00 1.81 0.02 94 1007.8
20260830053323 63 225 6.0 12.0 0.04 1.81 0.02 94 1007.6
20260830052321 63 222 5.0 11.0 0.04 1.81 0.02 94 1007.6
20260830051325 63 208 4.0 11.0 0.04 1.81 0.02 94 1007.4
20260830050327 63 213 6.0 12.0 0.04 1.81 0.02 93 1007.4
20260830045342 64 236 6.0 12.0 0.04 1.81 0.02 93 1007.3
20260830044342 64 240 7.0 12.0 0.08 1.81 0.02 93 1007.3
20260830043353 64 197 6.0 14.0 0.04 1.77 0.02 93 1007.2
20260830042320 64 221 5.0 15.0 0.04 1.77 0.02 93 1006.9
20260830041330 64 184 7.0 13.0 0.04 1.77 0.02 93 1006.9
20260830040333 64 239 7.0 17.0 0.04 1.77 0.02 93 1006.8
20260830035330 64 194 8.0 18.0 0.04 1.85 0.02 93 1006.9
20260830034332 64 218 4.0 15.0 0.00 1.81 0.01 93 1006.8
20260830033323 64 191 7.0 13.0 0.00 1.81 0.01 92 1006.7